DJ2KUA-6 Weather Reports


Display with metric or nautical units.
time (UTC)temp
F
wind
direction
speed
MPH
gust
MPH
rain 1hr
in
rain 24hr
in
rain mn
in
humidity
%
barometer
mb
20260507090654 54 270 0.0 0.0 0.00 0.59 0.00 84 1067.0
20260507084756 53 338 0.0 0.0 0.00 0.59 0.00 85 1067.0
20260507082855 54 338 0.0 0.0 0.00 0.59 0.00 85 1067.0
20260507080957 53 0 0.0 0.0 0.00 0.59 0.00 86 1067.0
20260507075055 54 315 0.0 0.0 0.00 0.61 0.00 85 1066.0
20260507073155 55 338 0.0 0.0 0.00 0.61 0.00 86 1066.0
20260507071539 55 270 0.0 0.0 0.00 0.61 0.00 87 1066.0
20260507071254 55 270 0.0 0.0 0.00 0.61 0.00 87 1066.0
20260507063455 52 292 0.0 0.0 0.00 0.61 0.00 86 1066.0
20260507061554 52 338 0.0 0.0 0.00 0.61 0.00 86 1066.0
20260507055657 51 315 0.0 0.0 0.00 0.61 0.00 85 1066.0
20260507053756 51 112 0.0 0.0 0.00 0.61 0.00 85 1065.0
20260507051855 50 315 0.0 0.0 0.00 0.61 0.00 85 1065.0
20260507044056 50 315 0.0 0.0 0.00 0.61 0.00 85 1065.0
20260507042153 50 315 0.0 0.0 0.02 0.61 0.00 85 1064.0
20260507040254 50 292 0.0 0.0 0.02 0.61 0.00 85 1064.0
20260507034355 50 315 0.0 0.0 0.02 0.61 0.00 85 1064.0
20260507032455 50 315 0.0 0.0 0.00 0.59 0.00 85 1064.0
20260507030555 50 315 0.0 0.0 0.00 0.59 0.00 85 1064.0
20260507024655 50 315 0.0 0.0 0.02 0.59 0.00 85 1064.0
20260507022754 50 315 0.0 0.0 0.02 0.59 0.00 85 1064.0
20260507020853 50 292 0.0 0.0 0.02 0.02 0.00 86 1063.0
20260507014955 50 315 0.0 0.0 0.00 0.57 0.00 86 1063.0
20260507013053 50 0 0.0 0.0 0.00 0.57 0.00 86 1063.0
20260507011153 50 338 0.0 0.0 0.00 0.57 0.00 86 1063.0
20260507005254 51 270 0.0 0.0 0.02 0.57 0.00 86 1063.0
20260507003353 52 338 0.0 0.0 0.04 0.57 0.00 86 1062.0
20260507001456 52 338 0.0 0.0 0.06 0.57 0.00 86 1062.0
20260506235554 52 338 0.0 0.0 0.06 0.55 0.00 86 1062.0
20260506231755 52 292 0.0 0.0 0.06 0.50 0.00 86 1062.0
20260506225854 52 292 0.0 0.0 0.12 0.48 0.00 86 1062.0
20260506223954 52 292 0.0 0.0 0.18 0.46 0.00 86 1062.0
20260506222056 52 315 0.0 0.0 0.20 0.44 0.00 86 1062.0
20260506220157 53 315 0.0 0.0 0.14 0.36 0.00 86 1062.0
20260506214254 53 135 0.0 0.0 0.12 0.28 0.00 86 1062.0
20260506212355 53 135 0.0 0.0 0.12 0.24 0.00 86 1061.0
20260506210456 53 158 0.0 0.0 0.14 0.22 0.00 87 1061.0
20260506204556 53 135 0.0 0.0 0.10 0.16 0.00 87 1061.0
20260506202654 53 338 0.0 0.0 0.08 0.12 0.00 87 1061.0
20260506200754 53 292 0.0 0.0 0.04 0.08 0.00 87 1061.0
20260506194854 54 135 0.0 0.0 0.02 0.06 0.00 87 1061.0
20260506192956 54 112 0.0 0.0 0.00 0.04 0.00 86 1060.0
20260506191054 55 315 0.0 0.0 0.00 0.04 0.00 86 1060.0
20260506185154 56 135 0.0 0.0 0.00 0.10 0.00 85 1060.0
20260506181356 56 135 0.0 0.0 0.00 0.10 0.00 84 1060.0
20260506175456 57 315 0.0 0.0 0.00 0.12 0.00 83 1059.0
20260506173557 58 90 0.0 0.0 0.00 0.12 0.00 82 1059.0
20260506171653 58 112 0.0 0.0 0.02 0.12 0.00 83 1059.0
20260506165754 58 135 0.0 0.0 0.02 0.12 0.00 83 1059.0
20260506163856 58 135 0.0 0.0 0.02 0.12 0.00 83 1059.0
20260506161954 58 158 0.0 0.0 0.00 0.10 0.00 80 1059.0
20260506160056 60 135 0.0 0.0 0.00 0.10 0.00 76 1059.0
20260506154155 62 135 0.0 0.0 0.00 0.10 0.00 72 1059.0
20260506152255 64 158 0.0 0.0 0.00 0.10 0.00 68 1059.0
20260506144455 65 292 0.0 0.0 0.00 0.10 0.00 62 1058.0
20260506142554 65 292 0.0 0.0 0.00 0.10 0.00 60 1058.0
20260506140654 66 270 0.0 0.0 0.00 0.10 0.00 60 1058.0
20260506134755 67 315 0.0 0.0 0.00 0.12 0.00 58 1058.0
20260506132855 69 315 0.0 0.0 0.00 0.12 0.00 55 1058.0
20260506130956 70 292 0.0 0.0 0.00 0.12 0.00 54 1058.0
20260506125056 68 315 0.0 0.0 0.00 0.14 0.00 57 1058.0
20260506123156 68 292 0.0 0.0 0.00 0.14 0.00 58 1058.0
20260506121257 70 90 0.0 0.0 0.00 0.14 0.00 57 1058.0
20260506115354 70 315 0.0 0.0 0.00 0.14 0.00 59 1058.0
20260506113454 70 270 0.0 0.0 0.00 0.14 0.00 61 1058.0
20260506111556 67 135 0.0 0.0 0.00 0.14 0.00 63 1058.0
20260506105655 66 315 0.0 0.0 0.00 0.14 0.00 64 1059.0
20260506103755 66 202 0.0 0.0 0.00 0.14 0.00 65 1059.0